Miscellaneous Local Product
Issued by NWS Hastings, NE

Home | Current Version | Previous Version | Graphics & Text | Print | Product List | Glossary On
Versions: 1 2 3 4 5 6 7 8 9 10 11 12 13 14 15 16 17 18 19 20 21 22 23 24 25 26 27 28 29 30 31 32 33 34 35 36 37 38 39 40 41 42 43 44 45 46 47 48 49 50
000
AXUS43 KGID 010802
MISGRI

GID CWA HOURLY WEATHER ROUNDUP
NATIONAL WEATHER SERVICE HASTINGS NE
200 AM CST SUN MAR 01 2015

NOTE: "FAIR" INDICATES FEW OR NO CLOUDS BELOW 12,000 FEET WITH NO
SIGNIFICANT WEATHER AND/OR OBSTRUCTIONS TO VISIBILITY.

...SOUTH CENTRAL NEBRASKA...

CITY           SKY/WX    TMP DP  RH WIND       PRES   REMARKS
GRAND ISLAND   PTCLDY    16  12  84 S8        30.27F WCI   5
HASTINGS       PTCLDY    14  11  87 S6        30.25F WCI   5
KEARNEY        CLEAR     14  10  85 SW7       30.24S WCI   4
ORD            PTCLDY    12   7  80 CALM      30.24R
YORK           PTCLDY    10   9  92 S6        30.30S WCI   1
AURORA         PTCLDY    13  10  87 SW5       30.27F WCI   6
LEXINGTON      PTCLDY    15  12  88 CALM      30.22R
HOLDREGE       MOCLDY    17  14  89 S3        30.22S
HEBRON         MOCLDY    19  15  84 S3        30.32F

...NEBRASKA PANHANDLE...

CITY           SKY/WX    TMP DP  RH WIND       PRES   REMARKS
CHADRON        CLOUDY    19  10  68 N8        30.20R WCI   9
ALLIANCE       CLOUDY    18  10  71 NE9       30.12R WCI   7
SCOTTSBLUFF    CLOUDY    23  13  65 NE6       30.11R WCI  16
SIDNEY         CLOUDY    20  14  77 S5        30.10R WCI  13

...WESTERN AND NORTH CENTRAL NEBRASKA...

CITY           SKY/WX    TMP DP  RH WIND       PRES   REMARKS
VALENTINE      MOCLDY    17   5  59 NE3       30.23R
AINSWORTH      PTCLDY    15   6  65 NW5       30.21S WCI   8
ONEILL         PTCLDY    17  11  77 N7        30.23F WCI   7
BROKEN BOW     PTCLDY    17  12  80 CALM      30.21R
IMPERIAL         N/A     18  11  74 SE5       30.16R WCI  11
NORTH PLATTE   CLOUDY    17  12  80 CALM      30.20R
MCCOOK         CLOUDY    21  15  78 S5        30.21R WCI  15

...EASTERN NEBRASKA...

CITY           SKY/WX    TMP DP  RH WIND       PRES   REMARKS
NORFOLK        PTCLDY    15  12  88 SW9       30.27S WCI   3
SO SIOUX CITY  CLEAR     18  12  77 S8        30.32S WCI   8
TEKAMAH        CLEAR     12   8  84 S6        30.35R WCI   3
COLUMBUS       PTCLDY    16   7  67 SW5       30.31F WCI   9
ALBION         CLEAR     13   9  83 CALM      30.27S
OMAHA EPPLEY   CLOUDY    23  15  71 SW10      30.36S WCI  12
OFFUTT AFB     CLOUDY    22  15  74 SW6       30.34S WCI  15
MILLARD        CLOUDY    23  15  72 SW6       30.35S WCI  16
LINCOLN        CLOUDY    21  14  74 W8        30.35S WCI  11
NEBRASKA CITY  CLOUDY    21  17  83 S3        30.35S
BEATRICE       CLOUDY    21  18  86 SW3       30.33F
FALLS CITY     CLOUDY    19  16  88 CALM      30.36F

...NORTHERN KANSAS...

CITY           SKY/WX    TMP DP  RH WIND       PRES   REMARKS
GOODLAND       CLOUDY    19  17  92 S8        30.14R WCI   9
HILL CITY      CLOUDY    20  15  81 E3        30.25F
NORTON         PTSUNNY   18  12  79 S5        30.22S WCI  11
PHILLIPSBURG   MOCLDY    21  18  86 SE3       30.27F
SMITH CENTER   CLOUDY    18  16  93 SE5       30.30R WCI  11
BELOIT         CLOUDY    21  18  86 S5        30.33R WCI  15
HAYS           PTCLDY    16   7  67 CALM      30.26F
RUSSELL        MOCLDY    18  15  88 S5        30.28S WCI  11
CONCORDIA      CLOUDY    20  17  88 CALM      30.32S
SALINA         MOCLDY    19  16  88 CALM      30.35R
TOPEKA         CLOUDY    23  18  81 CALM      30.37R



USA.gov is the U.S. government's official web portal to all federal, state and local government web resources and services.